Wind_Speed
7 7 7 7 6 6 5 5 5 5 5 5 5 5 6 6 6 7 7 8 8 8 9 9 9 10 10 11 11 12 13 13 13 15 16 13 10 11 10 9 7 5 5 4 3 2 4 4 6 6 6 6 5 5 5 7 8 4 2 3 3 3 4 5 7 5 2 3 5 7 12 9 6 8 9 8 11 15 14 17 19 19 22 24 25 22 18 14
8 8 8 8 7 7 6 5 5 5 4 5 5 5 5 5 6 6 7 7 8 8 8 9 10 10 10 11 11 12 13 14 15 16 15 12 11 13 12 11 9 7 6 5 4 3 4 5 6 6 7 7 5 5 4 7 9 6 3 2 5 6 6 6 7 5 2 5 7 8 12 11 10 8 6 6 9 12 12 15 18 20 24 26 28 26 24 21
9 9 9 8 8 7 7 6 5 5 5 5 5 5 5 5 5 6 6 7 8 8 8 9 10 10 11 11 12 12 13 15 16 12 7 4 4 7 10 12 10 8 7 6 5 4 4 6 6 5 7 8 6 6 5 5 8 8 5 2 7 8 6 10 11 12 11 10 7 7 10 11 15 12 6 6 9 10 11 15 15 20 27 28 29 28 26 24
10 10 10 9 9 9 8 7 6 6 6 6 6 6 6 6 6 6 7 7 8 8 9 10 10 11 11 12 12 11 14 14 9 3 1 3 8 10 7 9 11 9 8 7 6 5 5 7 6 5 6 7 7 8 6 8 8 5 7 5 7 5 5 15 18 18 17 11 8 8 5 8 15 13 10 7 6 9 16 22 22 23 28 27 29 30 28 27
12 11 11 10 10 10 9 9 8 8 7 7 7 7 8 8 8 7 8 8 9 9 10 10 10 11 12 12 12 11 12 7 2 4 6 9 13 12 7 6 10 10 10 9 8 8 7 7 7 6 6 6 5 5 6 13 11 4 8 13 12 6 4 16 17 15 14 11 10 7 4 9 11 10 15 12 7 16 22 24 25 24 23 23 24 27 29 30
13 13 12 12 12 12 11 11 10 10 9 9 9 9 9 10 10 10 10 10 11 11 11 11 11 12 12 13 12 11 6 2 8 12 13 13 12 10 6 5 8 10 11 11 11 10 9 9 9 8 6 4 5 7 7 12 13 5 8 13 18 14 11 19 19 15 15 12 11 9 10 13 9 9 15 17 21 33 37 29 26 26 21 19 21 24 27 30
14 14 14 14 13 13 13 13 12 12 12 12 11 11 11 12 12 13 13 12 13 14 13 13 13 13 13 14 14 11 7 9 13 12 10 9 9 9 7 5 6 10 12 13 14 13 12 12 11 9 4 3 4 8 8 8 11 9 7 8 17 20 19 26 24 19 18 15 16 14 13 13 11 10 10 18 34 46 42 33 31 30 25 20 22 24 26 28
16 15 15 15 15 15 15 15 15 14 14 14 14 14 14 14 14 15 15 15 15 15 16 16 15 15 14 14 15 12 12 13 12 8 8 10 11 11 8 7 6 10 12 14 15 15 15 14 13 9 4 4 6 6 6 6 6 9 9 8 12 16 20 24 21 19 19 18 19 14 14 17 18 14 10 25 45 49 41 35 33 32 29 26 27 29 29 31
16 16 16 16 16 16 17 16 17 17 16 16 16 16 16 16 16 17 17 17 17 17 18 17 16 17 15 15 15 12 15 14 11 10 11 12 14 12 10 9 8 9 12 15 16 16 17 16 15 12 7 7 7 6 5 4 5 8 11 11 9 12 18 22 20 21 20 19 16 9 16 22 20 13 15 35 47 44 38 33 31 30 32 33 34 35 35 36
18 18 17 17 17 17 18 18 18 18 18 18 18 18 18 18 18 18 18 19 19 19 19 18 18 17 15 16 10 7 15 15 12 14 15 15 15 13 13 12 11 11 12 15 18 19 20 17 15 12 10 8 6 7 5 5 5 5 8 11 13 15 20 22 20 23 19 16 15 11 15 21 15 5 12 37 41 31 29 27 25 24 29 34 36 38 39 39
19 18 18 18 18 18 19 19 19 19 19 19 19 19 19 19 19 19 20 20 20 20 20 19 19 17 17 17 12 12 18 18 16 19 18 17 16 15 15 13 14 13 13 16 18 21 21 19 15 9 7 6 5 6 6 8 7 7 8 11 17 13 18 24 18 19 14 11 16 14 14 16 6 5 18 38 37 26 25 25 24 22 27 30 32 36 37 40
19 19 19 18 18 19 19 19 20 20 20 20 20 20 20 21 21 21 21 21 21 21 21 20 18 18 16 18 22 22 22 21 20 21 19 19 19 18 17 16 16 15 15 17 18 20 20 20 17 13 9 5 2 2 4 7 5 8 5 7 15 9 14 26 18 14 10 6 12 8 7 11 5 12 31 39 35 28 27 31 33 31 33 34 33 35 36 39
19 19 20 19 18 19 19 19 19 20 20 21 20 20 20 21 21 21 21 21 21 20 20 19 18 18 14 18 27 26 22 22 23 22 20 21 21 21 20 19 18 17 17 18 19 20 20 20 18 17 15 10 4 4 5 6 6 8 2 1 10 8 9 19 7 5 8 5 9 8 2 11 7 20 34 35 32 27 26 33 38 38 38 38 36 37 37 39
19 19 20 20 19 19 19 19 19 19 19 19 19 19 19 19 19 20 20 20 20 20 19 18 16 15 13 19 28 27 24 25 25 24 22 22 23 23 23 21 20 19 18 18 19 20 19 17 15 15 15 13 11 10 7 6 4 4 1 0 4 3 9 12 3 5 4 4 13 12 3 11 12 20 28 29 28 23 24 33 36 38 39 39 38 38 38 38
19 19 19 19 19 19 19 19 20 20 19 19 19 19 18 18 18 19 18 18 18 18 18 16 15 12 11 19 26 24 23 24 24 23 21 21 22 23 23 20 19 19 17 18 19 19 18 14 12 10 10 12 12 7 4 4 4 1 2 4 2 4 9 14 6 7 8 5 12 11 3 10 14 22 26 24 22 19 23 32 35 36 38 39 40 39 39 38
17 18 18 19 19 19 20 20 20 21 21 20 20 19 19 19 18 18 18 18 17 17 16 14 14 11 7 13 20 20 22 24 22 21 21 22 22 22 21 18 17 17 17 17 17 16 15 12 10 9 7 8 6 1 4 4 5 2 4 6 5 5 4 8 10 7 11 5 7 9 6 7 10 21 26 19 18 20 21 28 33 35 37 38 40 41 42 42
15 16 16 17 18 19 20 20 20 22 22 22 21 20 20 20 19 19 18 16 15 14 12 10 10 9 8 12 17 20 21 19 18 17 18 20 22 22 21 19 16 16 15 14 14 12 10 9 7 5 5 4 2 5 2 4 7 4 3 4 6 6 3 4 9 6 5 6 6 10 9 11 13 18 24 18 15 17 18 25 31 34 36 37 38 41 43 44
13 14 14 15 16 17 18 19 20 21 22 22 22 22 21 20 19 18 16 14 10 6 7 8 6 3 8 12 12 14 15 16 17 16 17 18 20 20 18 17 15 13 11 9 9 8 8 7 5 2 2 4 2 5 4 9 10 7 4 4 4 5 5 7 8 4 1 5 8 8 10 15 16 17 26 29 23 19 21 28 32 34 36 37 38 40 43 45
13 13 13 13 14 15 16 17 18 20 22 21 20 20 19 16 14 13 11 9 6 4 4 9 9 4 7 9 11 15 18 22 21 18 18 18 19 18 16 15 12 11 8 4 5 10 11 4 4 3 4 8 7 7 12 16 12 9 6 5 4 6 7 7 10 7 4 8 9 10 13 16 17 17 22 32 32 26 27 29 30 34 37 39 40 43 47 50
12 12 12 12 13 14 15 16 17 18 19 19 18 16 13 8 6 6 6 9 11 12 13 15 17 18 17 19 22 24 25 25 21 18 17 18 17 15 16 13 8 8 7 5 5 9 12 6 3 7 10 13 12 11 16 16 10 8 6 6 7 8 9 9 12 11 5 7 9 12 17 17 17 17 17 27 31 24 23 24 28 34 36 39 41 45 49 52
11 11 10 11 11 12 13 15 16 15 16 17 17 13 7 4 3 5 7 11 18 20 23 25 24 27 27 27 28 27 25 21 20 20 17 17 16 13 14 12 6 5 6 7 4 3 7 7 8 13 15 14 11 10 12 11 9 10 7 8 10 8 12 13 12 13 6 5 10 11 16 19 17 16 16 21 21 19 23 23 28 34 35 38 41 46 50 51
11 10 10 9 9 11 11 14 15 14 14 14 15 12 9 8 6 8 9 11 19 22 23 26 28 32 32 30 31 30 24 17 19 23 20 18 19 14 11 11 6 4 5 6 2 1 4 7 11 16 14 9 5 4 7 9 9 9 6 7 8 7 11 13 10 13 7 4 9 10 14 17 15 15 15 16 17 23 32 32 34 37 33 35 40 45 50 50
11 11 10 8 8 10 10 12 13 13 13 12 14 14 12 11 10 11 9 7 15 20 22 27 29 31 32 31 32 31 25 19 19 23 23 22 21 17 12 10 6 3 5 7 7 6 5 7 14 17 11 6 6 5 5 6 5 6 6 6 8 7 8 9 7 8 5 4 7 9 12 14 12 13 11 16 25 29 36 38 39 40 34 38 44 46 47 49
11 11 11 10 8 9 10 10 10 12 13 11 14 15 13 12 11 13 11 6 8 13 20 25 24 24 28 26 24 26 25 20 17 17 22 25 21 14 10 9 5 3 6 10 12 13 10 6 11 13 9 9 11 10 6 4 7 9 8 7 11 12 12 12 7 7 6 5 6 7 13 12 10 14 11 14 23 24 28 32 34 40 41 43 46 47 50 54
12 11 12 11 9 9 10 9 8 11 12 11 14 14 13 11 9 12 10 4 5 7 11 15 14 15 18 16 13 14 15 17 19 17 18 25 24 12 5 8 7 5 8 10 10 12 12 7 7 7 7 11 11 9 7 7 10 10 8 12 18 17 14 14 11 8 6 6 4 2 10 10 6 11 11 7 10 13 17 20 24 37 43 41 42 48 53 56
14 13 13 13 12 11 11 10 9 10 10 10 14 14 12 9 8 10 7 2 4 4 3 5 6 5 6 7 8 9 4 8 18 20 17 21 26 16 4 6 6 4 7 7 5 5 6 9 10 9 9 11 9 7 7 10 10 10 7 14 17 14 11 11 9 5 3 6 4 4 3 11 5 5 8 7 8 12 13 13 19 31 37 36 41 48 51 51
15 15 15 15 14 13 11 10 9 9 9 9 13 14 9 6 7 8 5 3 5 2 4 4 4 3 2 4 11 12 2 4 8 14 18 18 21 18 9 4 4 4 5 4 4 4 4 7 10 10 10 8 7 8 9 11 9 8 4 10 11 9 9 7 5 5 4 4 4 5 5 10 13 6 8 12 12 13 15 15 17 23 31 36 42 46 48 48
16 16 17 16 15 14 13 12 10 8 7 8 13 12 5 4 5 5 4 4 5 3 4 3 3 2 3 7 15 8 1 1 3 5 14 16 16 13 8 7 6 4 4 5 7 4 4 6 9 10 7 6 7 10 10 12 8 7 4 7 6 6 6 4 5 5 2 4 5 5 7 4 14 6 8 10 10 11 15 18 17 19 28 35 38 42 45 46
17 17 18 17 16 16 15 13 9 7 6 7 10 8 3 3 4 5 3 4 3 3 3 2 2 1 2 5 9 4 3 2 1 3 7 11 14 8 3 6 6 4 4 5 8 6 1 3 5 8 6 6 8 8 9 14 10 4 5 4 3 2 1 3 2 1 2 6 7 5 7 4 13 7 4 3 5 9 13 14 14 17 25 30 32 38 42 40
17 17 17 18 18 18 16 13 9 6 6 6 8 7 2 1 2 3 3 5 2 1 2 1 1 1 4 4 2 4 2 2 2 4 3 4 10 6 1 2 3 2 4 4 7 10 5 0 2 5 7 6 5 3 5 10 7 1 3 2 5 4 4 4 1 3 2 9 6 9 11 6 8 5 3 4 5 7 8 8 11 15 20 28 33 37 37 34
17 17 17 19 20 18 17 15 11 8 7 6 7 6 1 2 4 3 7 3 2 1 0 0 1 3 3 3 1 3 1 2 1 5 3 2 3 2 2 1 1 2 3 5 7 10 7 3 2 5 8 6 4 2 1 0 1 2 2 0 3 5 4 5 4 3 2 10 5 11 13 10 10 6 1 5 6 6 7 7 11 13 16 26 32 33 31 30
18 17 16 19 21 19 19 17 14 11 10 8 8 4 1 1 0 6 5 5 3 2 1 1 0 1 1 1 2 3 1 2 3 5 3 3 3 3 3 4 4 2 4 4 4 6 5 8 7 3 7 9 6 3 3 5 1 4 3 3 0 5 4 3 3 1 4 9 6 9 8 7 11 7 4 9 12 10 8 10 14 14 16 25 30 27 25 27
19 18 17 18 21 21 22 20 17 14 11 10 9 2 3 1 5 6 3 1 3 2 3 2 1 3 4 1 3 3 1 2 3 3 2 3 2 3 5 5 5 2 4 3 2 4 4 7 5 3 3 10 10 5 3 3 4 7 5 5 5 3 3 4 4 2 6 9 6 5 6 4 7 4 8 12 12 12 8 12 20 21 22 28 30 27 23 25
19 19 20 20 19 19 20 20 19 16 10 7 5 2 3 5 5 0 2 6 4 2 3 1 1 2 4 3 5 3 2 4 3 3 1 2 1 3 4 6 5 3 2 2 2 1 4 9 4 6 3 7 11 11 11 5 4 7 5 6 7 6 5 5 4 6 7 6 5 1 4 5 3 2 9 11 9 12 13 16 19 22 26 29 30 33 31 27
20 20 21 20 18 17 17 19 20 14 8 7 6 3 4 7 4 0 2 5 2 3 3 3 2 1 2 3 4 2 3 3 2 4 1 2 2 3 3 4 7 6 2 2 3 2 4 9 4 4 3 8 11 13 11 3 1 4 4 4 7 7 5 4 7 9 6 3 4 3 4 6 4 4 6 4 6 10 13 14 13 17 24 24 25 30 32 29
19 19 20 21 21 21 20 19 17 11 9 11 6 2 7 5 3 3 2 1 1 2 5 5 1 1 3 2 2 1 2 2 1 2 1 3 3 4 4 4 7 10 7 5 3 2 5 7 3 2 3 7 9 7 7 5 2 1 3 4 5 3 5 5 8 7 5 5 6 6 8 6 4 6 5 4 7 6 7 8 8 13 18 17 19 23 25 26
15 15 17 20 20 19 20 19 14 12 16 14 5 5 6 4 5 5 2 1 1 1 2 3 1 1 2 2 2 3 1 1 3 2 1 2 2 3 4 4 5 11 13 9 3 3 6 8 8 9 8 7 5 3 3 5 6 5 3 6 3 2 2 3 3 3 5 9 7 8 14 9 2 6 7 7 8 7 8 8 7 11 13 13 16 19 20 18
15 16 18 21 20 17 16 16 15 17 17 10 7 9 6 4 7 7 4 4 3 1 1 4 3 1 3 3 3 3 1 2 2 1 1 1 3 6 5 4 3 6 10 8 3 2 3 5 9 9 7 4 1 1 4 5 4 5 3 3 3 2 3 2 3 3 7 10 6 8 15 12 5 6 6 5 4 5 7 7 8 10 11 14 18 18 15 13
15 14 16 19 19 18 16 16 19 21 14 5 7 9 4 4 6 7 8 5 2 2 3 5 4 3 4 5 3 2 3 4 2 1 3 3 4 6 5 2 2 3 5 6 3 3 1 3 6 5 3 3 3 1 4 4 3 1 1 1 1 3 4 4 3 3 5 10 8 7 10 8 5 6 6 8 8 4 4 8 7 6 8 13 16 14 12 10
15 10 11 14 12 11 14 18 21 18 8 4 8 6 2 2 4 7 11 8 4 4 4 4 5 5 5 6 5 3 4 5 5 4 4 4 5 5 4 4 2 4 6 4 2 3 1 3 5 4 3 2 2 4 5 4 2 1 2 4 3 2 2 2 3 2 3 7 7 7 8 6 5 5 5 7 7 4 4 7 6 7 7 10 12 10 9 9
15 9 10 13 10 12 19 18 14 9 3 4 5 4 3 3 4 6 11 14 11 9 7 4 5 6 5 6 6 4 3 4 6 6 4 5 6 4 6 9 7 4 4 2 2 3 1 2 3 4 5 6 7 6 6 6 5 4 5 6 6 6 5 5 6 5 4 5 5 6 7 5 4 5 5 7 7 6 8 8 8 10 12 13 13 10 7 7
14 8 9 13 14 20 22 13 5 5 4 4 5 4 4 4 5 6 9 13 12 9 8 6 5 6 5 5 5 4 4 4 5 6 5 7 10 8 9 15 14 10 8 5 5 6 4 3 4 6 7 8 11 10 7 8 8 6 5 5 5 5 5 6 8 6 4 4 3 5 7 4 4 11 13 13 12 10 13 14 11 13 18 18 18 18 14 13
16 14 13 14 17 25 19 6 5 7 3 4 5 5 6 4 4 5 6 8 8 6 5 5 5 7 6 6 7 6 5 6 7 8 7 7 9 14 19 22 20 15 8 4 4 5 5 3 5 7 6 7 11 13 13 9 6 6 6 5 6 6 6 8 6 4 5 6 6 8 11 7 5 13 17 16 16 13 16 20 16 14 20 22 23 27 26 24
13 15 14 13 17 23 15 3 5 7 5 5 4 5 8 6 6 9 6 5 6 5 4 4 5 8 8 7 9 8 7 6 8 9 9 5 7 17 27 31 25 12 4 5 4 4 5 4 5 7 6 5 6 7 10 8 5 6 6 6 9 11 12 10 5 3 6 10 12 13 12 9 8 13 15 16 20 19 20 27 24 18 20 24 26 29 33 35
7 9 12 15 22 25 18 11 9 6 5 9 7 7 8 6 10 16 13 8 9 7 3 4 5 6 6 7 8 8 8 8 7 6 5 4 4 10 19 26 22 12 10 14 9 5 5 5 5 6 7 7 8 7 7 6 4 4 4 5 7 9 11 10 7 6 9 12 15 14 12 10 9 12 15 18 24 24 23 27 26 20 21 25 27 28 33 38
3 4 7 12 22 27 23 21 18 8 5 8 7 7 11 9 9 14 13 11 13 13 7 6 7 6 4 6 8 9 9 9 8 5 4 5 4 4 9 17 19 17 19 22 12 5 2 4 6 10 12 12 13 12 7 4 4 5 7 10 10 8 8 7 6 9 11 11 13 13 13 15 13 12 16 19 21 23 24 24 21 20 23 27 30 33 33 34
3 3 3 5 12 18 18 19 17 8 7 9 4 4 11 11 7 8 10 10 12 13 9 8 10 9 8 9 9 8 9 10 9 8 8 8 5 7 14 17 18 20 21 20 14 6 3 6 10 15 18 18 18 19 16 13 13 15 16 18 17 14 12 11 12 14 12 11 13 13 14 17 14 12 17 21 22 23 22 20 20 25 30 32 35 36 33 33
5 4 5 3 3 7 9 11 13 10 10 11 7 5 9 10 7 6 6 7 9 10 6 5 10 13 12 11 8 6 8 9 8 8 6 4 4 6 11 12 11 15 15 13 13 7 4 9 13 15 19 19 19 21 21 19 18 18 19 20 20 19 19 19 20 20 17 16 17 16 17 20 16 15 19 22 22 21 21 25 31 36 37 37 38 37 35 38
6 5 7 5 3 5 5 2 4 7 8 8 6 7 10 12 11 8 5 4 5 6 7 7 6 5 4 3 2 3 6 6 5 4 1 2 4 3 5 7 7 10 11 8 9 6 2 6 11 15 17 17 18 20 21 21 21 20 20 21 20 22 24 24 24 24 23 24 23 22 24 24 19 18 20 22 25 26 28 34 38 39 40 42 42 36 31 32
6 4 5 6 5 7 6 2 1 2 4 5 5 7 9 11 12 9 5 4 3 2 5 5 2 3 1 0 1 4 4 1 2 3 1 3 4 2 1 4 6 9 10 7 6 4 3 4 7 12 13 12 16 19 19 20 20 21 21 21 22 24 25 25 24 22 22 25 26 27 27 22 19 20 23 26 31 31 30 31 34 38 40 36 29 26 27 30
10 7 4 6 4 5 5 3 1 1 3 5 4 4 5 6 6 3 2 6 7 2 2 2 4 3 1 3 4 4 1 1 3 7 7 5 7 7 5 5 6 9 10 7 5 4 4 4 6 9 9 8 11 16 18 18 19 21 22 23 24 25 23 22 21 20 21 23 24 25 21 16 16 18 20 23 24 24 22 23 24 26 24 25 27 29 32 34
12 12 8 5 4 5 4 2 0 3 5 3 1 2 4 3 2 4 3 4 5 6 9 7 4 5 3 4 6 4 4 7 10 13 15 15 17 18 17 16 14 10 7 6 6 5 5 5 5 7 8 8 9 13 16 15 14 14 16 22 26 25 24 22 21 21 22 20 18 16 12 9 11 12 13 15 15 15 14 11 16 23 28 30 29 28 30 33
Wind_Direction
312 315 315 317 321 324 328 335 342 350 1 7 15 21 24 25 24 24 20 20 18 14 11 5 359 352 347 339 333 323 314 309 303 295 289 290 282 271 269 270 270 278 295 286 278 241 212 185 184 194 200 211 230 237 219 217 209 194 122 134 230 206 207 199 194 212 169 252 271 232 227 213 244 255 242 254 246 245 247 237 233 232 234 239 247 251 254 250
305 307 308 309 309 311 315 318 323 330 339 346 357 4 9 16 13 14 12 10 8 7 7 1 357 352 348 345 341 332 323 315 304 296 295 292 272 262 261 263 267 268 277 278 279 261 220 175 178 203 211 225 238 228 219 215 202 187 136 155 226 205 214 214 203 220 210 263 267 247 234 219 236 257 245 250 251 246 248 246 238 238 239 240 245 247 250 251
300 302 302 303 301 303 303 304 310 310 318 325 332 339 345 354 354 357 356 354 355 353 353 351 348 344 343 343 341 336 331 322 309 302 300 309 306 282 260 252 253 255 256 259 266 261 233 195 186 209 221 232 234 221 219 203 201 204 178 197 243 217 238 260 246 251 266 273 267 254 241 225 241 253 238 239 266 262 242 243 236 238 247 246 244 245 246 247
297 298 298 299 297 296 296 296 297 297 303 306 312 319 320 327 331 333 334 335 336 336 338 338 337 335 335 336 337 336 337 329 314 328 83 41 359 341 302 252 239 240 241 239 247 246 237 216 213 228 224 231 227 222 220 203 200 199 182 205 240 199 230 260 257 260 267 270 259 253 238 239 252 249 235 242 287 273 245 247 245 244 258 260 251 248 246 245
297 297 297 297 295 294 293 291 290 291 292 293 298 302 305 310 312 315 318 318 319 322 325 325 327 327 326 329 329 331 347 352 334 1 330 312 324 328 331 268 232 227 232 229 233 234 230 223 226 229 221 228 210 204 230 215 201 185 215 226 238 206 218 262 264 268 269 265 259 252 238 260 263 241 235 231 236 264 264 266 266 260 267 271 261 256 250 246
296 297 298 298 297 295 293 291 290 289 287 288 290 291 297 300 302 304 305 308 309 311 313 316 319 319 320 322 318 321 338 311 305 324 315 310 320 321 326 288 235 224 227 226 230 231 229 225 222 219 213 233 202 197 237 223 205 223 248 236 246 240 240 265 267 270 275 265 255 253 260 266 264 256 249 232 240 267 276 276 275 274 273 267 260 255 250 248
297 297 298 299 299 297 294 293 291 289 287 286 286 287 291 294 296 297 298 302 303 304 307 309 311 313 316 314 312 311 284 278 306 315 313 322 329 326 324 299 252 232 228 226 230 228 229 223 220 222 212 255 227 213 247 244 208 222 259 247 255 251 247 262 266 268 272 266 265 267 268 260 249 264 264 249 261 274 278 275 272 271 269 259 251 249 250 253
297 297 298 299 299 298 296 295 293 291 288 286 287 287 289 291 292 292 294 295 296 299 299 301 305 307 312 309 309 305 280 288 312 308 306 317 316 319 319 302 272 246 236 232 234 232 235 226 224 227 213 242 234 222 253 272 219 209 246 256 256 256 255 265 270 269 270 270 274 272 262 254 249 263 270 265 273 279 278 276 273 266 261 254 250 251 253 255
298 298 298 299 298 298 296 295 295 291 289 288 288 288 289 290 290 290 291 291 292 294 293 295 297 299 303 300 302 299 284 293 310 301 301 306 304 304 299 294 278 259 246 239 238 235 235 231 234 233 235 248 238 236 230 250 239 206 234 258 263 268 272 278 276 273 274 274 273 260 262 262 256 265 275 269 274 281 280 277 275 266 259 255 253 254 255 256
297 297 298 298 298 297 296 295 295 293 291 291 291 292 291 290 290 290 290 290 290 291 291 291 293 294 294 291 285 270 282 292 298 299 301 298 294 289 287 285 274 264 252 244 239 236 236 236 241 237 245 260 240 238 210 206 246 240 262 278 277 278 283 281 274 274 278 276 263 233 258 269 257 236 266 272 275 280 280 279 276 268 262 260 257 257 256 257
297 299 299 298 297 297 295 294 294 293 292 292 293 293 293 293 293 292 291 291 290 291 290 290 292 289 287 284 255 245 279 289 291 295 296 292 287 281 279 275 269 265 254 248 242 241 241 238 237 228 240 256 242 247 234 234 258 288 314 310 290 293 295 281 267 270 274 275 257 227 255 273 244 186 245 267 276 276 277 281 277 269 268 267 263 261 259 258
301 303 302 300 301 299 296 296 294 292 292 292 293 293 293 293 293 293 292 292 291 291 290 290 290 285 285 277 261 264 282 286 288 291 288 286 284 277 272 266 264 262 258 255 249 246 243 238 233 225 233 243 261 294 246 254 293 301 328 327 294 318 308 282 271 261 243 251 254 206 265 277 192 221 248 264 272 269 273 277 278 275 272 271 268 264 262 262
302 303 303 303 304 303 301 300 297 295 293 293 293 293 293 293 292 292 291 291 291 291 291 291 287 282 277 270 271 278 284 284 285 286 283 281 280 275 269 264 262 258 257 257 253 250 243 239 234 230 240 242 246 267 263 292 320 299 327 18 291 332 304 279 281 231 216 224 223 162 259 274 234 236 251 268 269 264 269 273 277 278 276 274 271 268 265 265
298 299 300 301 303 304 303 303 301 299 297 296 296 296 295 293 292 291 290 290 289 290 291 290 284 276 262 265 278 282 281 282 283 283 283 279 275 273 267 264 263 261 259 255 251 248 242 238 235 235 242 243 252 270 287 320 320 287 320 209 280 308 271 276 47 135 212 228 190 165 231 265 267 255 256 270 267 259 263 268 275 277 276 276 273 271 268 266
295 297 298 299 301 302 303 304 302 301 302 301 299 299 298 296 294 292 291 289 288 289 288 284 277 267 254 267 277 279 279 279 281 286 284 276 271 268 266 265 264 262 259 253 247 244 241 236 231 233 241 249 255 271 320 343 333 354 228 272 255 204 260 291 312 181 213 239 177 168 234 257 269 270 265 267 264 255 253 263 271 272 273 273 272 271 269 268
298 299 299 301 301 301 303 304 303 303 303 303 302 303 301 299 297 295 293 291 289 285 279 275 267 252 243 273 277 275 277 278 284 287 279 273 268 263 263 263 261 257 252 248 245 241 239 234 231 234 241 254 241 157 25 343 312 309 206 244 249 220 257 305 305 227 206 203 176 198 235 254 263 271 271 265 255 249 243 257 266 268 270 269 269 270 268 268
304 303 303 304 302 303 305 304 305 304 303 304 303 302 302 301 299 296 295 293 289 278 268 260 254 244 240 266 272 273 280 285 289 288 280 274 266 260 257 255 254 250 244 241 241 233 223 215 209 229 243 252 163 107 42 276 264 275 197 230 248 235 232 274 299 293 198 176 211 230 232 244 253 267 273 265 251 246 238 253 263 267 269 267 268 268 268 269
313 311 310 308 306 306 307 307 307 304 303 306 305 304 304 301 298 297 293 289 280 265 254 226 205 238 251 254 261 273 290 296 294 293 288 273 257 253 249 247 247 238 228 227 229 200 189 197 173 180 277 251 184 131 197 235 238 244 217 226 254 243 237 244 269 291 197 222 227 232 238 245 254 266 270 267 262 254 249 256 263 266 267 266 266 265 267 270
322 322 321 317 314 313 312 311 310 307 305 305 307 308 306 302 299 293 283 271 243 216 241 211 197 230 256 254 265 276 285 288 288 285 277 264 248 243 237 237 234 211 190 190 209 180 174 158 114 164 236 234 220 180 212 234 238 246 238 220 229 246 245 240 252 249 240 263 242 233 248 248 252 256 262 267 265 261 259 261 262 264 265 265 263 262 265 267
324 324 324 323 321 321 321 319 317 315 310 307 311 314 310 309 312 293 267 251 249 256 264 249 239 248 255 262 268 271 273 273 272 268 264 254 240 230 223 220 205 193 182 155 183 189 178 162 157 200 216 226 226 205 220 240 253 267 263 249 246 253 263 253 261 263 220 247 248 231 248 252 250 251 251 262 267 266 264 262 260 259 260 260 261 262 263 266
326 320 321 322 323 325 327 328 326 324 323 321 321 327 331 339 324 295 289 275 273 271 267 266 258 253 258 265 264 262 261 261 260 256 253 242 226 214 212 201 170 196 199 158 155 178 171 187 211 213 218 225 228 214 225 243 253 258 253 262 264 254 266 260 262 273 227 219 257 242 254 260 251 251 251 257 265 266 262 261 259 258 257 257 259 261 264 266
326 319 319 318 321 327 329 332 329 328 334 331 330 341 348 342 316 293 301 287 282 279 270 269 262 255 260 264 259 254 250 252 254 246 239 226 212 205 197 181 178 200 164 158 201 219 189 218 224 222 226 235 250 209 219 238 238 245 245 262 268 254 273 270 252 262 241 202 262 258 259 264 256 252 250 250 255 258 259 258 259 259 257 256 257 259 263 265
318 317 315 314 321 326 330 334 330 331 334 333 342 350 346 339 329 317 316 281 281 284 272 267 260 256 261 260 253 245 237 238 246 242 233 220 204 202 196 172 182 171 140 184 211 219 224 230 227 228 228 234 257 231 216 260 249 227 227 247 263 251 265 268 244 257 250 204 261 274 269 268 267 261 248 243 248 254 260 260 261 262 258 256 257 258 262 265
306 307 306 308 314 318 329 334 331 337 337 344 354 351 345 339 333 334 327 277 274 280 269 266 260 256 260 259 252 240 232 233 241 241 232 218 198 196 209 184 173 177 187 204 213 232 245 230 217 217 207 211 236 239 220 262 264 230 209 221 251 248 245 254 269 303 293 257 259 287 286 274 248 252 252 241 246 253 259 261 263 263 260 258 259 259 260 263
292 294 296 300 302 307 320 323 326 342 345 350 351 346 350 346 337 344 338 302 281 272 262 260 256 255 252 255 252 230 225 233 236 236 231 220 206 197 200 182 185 206 205 209 224 247 252 231 204 186 192 208 220 234 208 206 258 256 202 211 240 247 250 259 281 314 310 281 266 295 295 284 204 224 249 246 249 256 255 256 259 261 261 259 258 259 260 261
284 285 288 291 293 296 305 310 318 339 345 346 349 350 353 355 354 352 353 345 289 265 221 225 236 247 232 235 219 181 177 247 235 228 222 219 214 207 185 172 196 213 187 196 234 255 242 217 202 190 199 205 207 232 210 190 244 272 214 209 233 246 255 258 270 289 262 267 276 115 280 285 255 213 245 246 242 250 252 250 251 255 258 257 256 259 260 261
279 279 280 281 285 287 293 302 309 327 341 344 351 351 346 359 7 359 6 335 282 207 145 190 197 205 225 189 171 157 149 256 215 213 208 206 209 206 210 194 190 218 168 152 264 251 191 200 208 207 203 194 195 229 215 183 216 268 210 192 215 235 246 231 216 227 232 284 285 153 159 273 280 241 212 227 231 243 251 249 250 252 254 254 254 258 261 264
275 275 273 273 277 279 283 293 303 324 338 340 347 346 355 19 360 14 36 292 276 118 129 189 163 213 263 175 172 168 328 181 136 208 200 195 198 194 218 214 180 217 171 152 242 249 142 190 216 204 197 200 205 221 200 169 207 254 159 152 178 204 220 176 179 224 276 341 287 198 143 255 283 259 187 219 226 230 243 245 248 249 249 251 253 256 261 266
272 268 266 267 272 274 277 284 295 315 321 335 346 341 6 14 354 48 66 258 283 76 125 174 173 269 25 152 188 234 345 20 16 209 179 188 195 179 213 220 190 241 249 193 235 262 163 195 193 166 179 218 218 225 185 171 208 231 128 107 70 95 77 88 184 205 31 306 266 198 150 229 284 286 144 195 222 226 238 240 247 251 252 255 258 260 262 266
263 263 262 260 264 269 274 280 285 296 300 317 335 335 1 12 47 83 236 249 313 25 140 141 249 336 66 100 264 293 290 344 24 144 133 169 196 188 134 182 160 219 273 271 258 258 252 93 104 176 206 210 191 208 185 183 211 110 112 327 13 18 22 47 355 71 33 279 247 175 173 194 274 288 150 184 215 231 241 246 258 260 258 259 260 263 264 267
258 263 261 256 259 264 269 273 274 279 279 288 317 332 23 67 76 164 235 265 21 306 64 17 323 38 79 120 265 278 209 277 172 150 158 121 169 191 132 156 97 52 323 292 276 271 259 219 212 215 201 168 128 197 253 356 205 113 136 325 6 328 360 27 349 57 220 261 226 178 181 186 235 269 254 238 244 235 225 232 255 260 259 259 257 259 263 268
258 261 259 255 254 256 260 266 270 269 269 275 291 305 120 59 208 215 245 359 350 249 95 77 50 66 91 87 261 240 176 252 209 155 175 150 144 191 204 203 170 43 310 254 271 305 278 228 224 209 186 176 167 215 303 356 85 139 128 129 267 303 338 347 301 157 222 255 235 189 178 203 240 256 273 272 275 259 225 217 237 248 258 259 256 257 262 271
257 254 253 248 244 245 250 258 265 263 266 272 270 274 98 166 236 222 212 280 251 210 107 102 113 148 146 101 269 231 165 246 202 159 178 133 149 237 259 236 171 159 269 226 288 317 296 265 211 137 222 198 176 179 239 277 190 173 159 155 171 216 248 249 260 266 255 264 259 186 166 246 279 268 228 237 257 262 245 234 237 242 255 263 267 268 269 274
256 250 247 240 236 240 243 247 254 261 267 254 232 128 123 211 238 298 172 217 249 18 74 88 55 154 154 188 236 192 184 253 169 142 165 106 163 255 260 246 205 190 231 216 289 243 270 290 205 158 227 190 180 207 215 196 175 195 170 150 184 193 192 204 221 247 253 272 291 206 173 220 245 250 227 220 245 267 267 260 251 248 255 263 269 269 268 273
259 253 244 236 231 233 237 238 241 251 241 187 153 122 192 224 241 187 211 231 279 356 330 333 67 191 252 243 249 198 198 250 108 118 162 145 197 230 217 222 206 191 173 220 256 163 231 275 244 181 180 159 182 221 215 162 353 234 133 132 221 208 176 213 238 241 252 303 295 238 218 226 229 272 265 259 284 274 268 274 272 268 268 269 271 272 272 275
262 255 245 239 234 233 237 234 232 233 199 163 131 206 220 230 217 181 209 237 51 20 334 327 42 198 289 293 293 289 173 206 170 122 192 202 216 225 219 227 201 188 183 195 227 224 245 273 276 243 212 186 200 216 190 170 206 223 134 185 231 167 152 227 259 260 266 272 260 247 260 275 298 286 285 336 330 310 309 319 309 296 295 291 288 288 284 281
262 254 246 241 235 233 233 228 226 218 190 166 162 219 215 230 212 196 200 160 166 25 10 310 272 181 265 288 268 265 344 263 215 159 190 234 238 209 210 249 209 192 204 217 240 250 253 271 269 265 271 251 217 182 205 203 163 135 185 220 216 80 141 200 247 266 256 254 253 255 263 272 287 276 297 349 350 333 335 351 350 332 334 332 323 314 298 287
262 261 258 249 242 240 235 229 227 212 188 172 216 222 206 216 207 196 192 174 180 205 189 229 248 210 207 238 262 254 281 291 225 178 206 216 225 210 207 248 227 197 215 229 264 280 260 274 271 276 293 309 51 124 273 266 189 166 203 206 147 184 224 188 187 217 237 248 246 241 258 265 238 244 281 296 286 302 330 13 18 355 357 360 354 342 317 294
263 268 268 262 253 247 239 228 217 202 184 179 227 221 206 205 204 196 201 202 170 179 214 224 230 248 220 213 227 237 221 218 207 249 240 218 236 227 205 209 231 216 195 174 198 244 221 250 261 277 316 350 15 221 233 259 260 254 299 295 177 192 193 190 196 187 224 248 253 238 246 261 245 219 219 226 220 233 347 18 5 334 357 7 4 359 346 335
256 262 265 259 245 227 217 208 200 191 183 218 220 217 225 220 229 217 208 207 188 191 218 218 216 237 236 220 226 229 223 212 199 214 224 226 254 276 267 249 243 231 211 167 185 219 214 259 259 278 295 301 287 224 199 206 230 213 227 247 252 231 232 262 238 174 201 244 258 253 245 252 258 228 213 231 220 214 334 350 318 295 322 343 351 357 353 351
243 252 256 243 221 193 190 187 188 190 209 247 228 224 241 244 249 236 221 218 220 221 218 205 212 225 228 236 236 217 217 211 197 205 217 221 228 257 260 230 194 197 240 273 250 203 196 274 276 296 283 271 270 242 195 202 223 211 216 235 237 232 244 268 251 217 207 235 247 260 259 256 275 269 268 279 270 275 302 296 274 279 287 297 316 332 331 317
226 235 246 233 214 193 184 177 194 216 216 230 235 227 235 254 251 240 228 217 216 223 222 216 222 221 220 235 234 214 215 215 204 210 220 220 213 217 232 220 211 229 250 246 230 203 178 198 242 257 253 259 277 276 246 229 231 231 227 223 231 225 212 236 247 236 235 265 279 277 263 245 280 283 282 286 283 282 285 278 271 277 281 288 300 306 307 297
217 229 240 236 215 196 186 185 224 215 221 245 244 236 234 245 249 247 237 211 207 217 220 216 216 220 223 226 228 226 222 218 214 217 228 231 217 218 230 236 241 252 251 232 232 210 179 173 226 242 248 251 268 282 278 255 221 240 247 217 218 226 221 232 238 223 237 260 270 270 261 237 241 269 273 280 282 278 274 272 267 266 276 285 291 294 297 294
222 234 236 235 220 203 194 201 217 213 232 240 239 238 237 234 235 245 240 199 197 204 212 219 213 218 222 220 224 223 215 223 229 228 227 224 216 222 232 242 248 248 226 222 221 210 218 202 206 238 258 250 250 271 273 255 212 224 234 209 222 233 237 250 251 215 237 242 241 250 258 244 232 254 269 280 282 278 272 267 262 257 267 276 281 288 292 291
228 240 235 225 213 207 208 216 221 222 221 228 236 232 235 240 236 240 244 235 226 217 216 242 236 233 225 220 237 236 224 233 249 256 245 233 239 230 230 239 243 238 243 245 219 174 231 222 189 228 242 238 244 242 242 247 224 213 217 218 235 233 234 252 263 251 248 241 237 244 257 257 246 252 264 270 272 274 274 270 266 261 263 270 276 280 281 282
203 237 238 218 210 213 222 224 224 227 212 225 237 222 225 239 241 237 237 241 242 236 239 257 261 273 250 225 245 251 242 241 241 253 266 257 272 266 245 248 247 243 250 255 238 163 205 245 211 227 236 239 249 249 245 255 250 252 257 254 254 245 233 251 260 251 256 258 248 246 255 260 254 251 259 261 264 269 272 274 275 273 271 273 276 276 275 275
200 230 214 198 212 224 234 230 223 220 206 210 211 207 225 234 244 238 223 223 232 227 229 242 240 241 238 232 242 249 248 246 239 239 249 253 267 285 280 276 266 257 259 263 256 218 202 256 237 233 239 240 248 254 255 255 254 256 262 262 262 257 246 249 252 251 260 269 260 251 256 262 258 252 258 262 264 267 271 278 282 280 277 276 277 278 278 277
206 252 236 210 205 224 235 230 226 227 220 214 208 218 238 238 230 222 219 230 230 213 210 244 235 231 239 245 247 249 247 247 250 251 249 273 322 320 305 304 293 286 286 278 267 253 232 252 246 241 244 240 242 250 251 252 254 253 254 258 259 257 253 251 253 254 253 255 258 256 255 259 257 248 250 255 260 265 270 277 280 281 281 281 281 281 281 281
225 270 265 257 249 253 269 259 234 243 236 229 217 218 240 248 240 229 222 250 250 217 214 235 243 249 279 288 247 246 251 245 257 276 359 6 326 315 312 310 318 337 345 323 295 294 270 253 251 253 256 248 242 244 245 247 251 250 250 250 250 253 253 251 252 255 254 256 261 262 258 257 256 252 250 252 258 266 271 274 276 278 280 281 285 290 296 302
241 263 288 296 278 266 280 310 322 279 250 242 235 221 231 243 246 245 228 218 237 233 223 233 334 9 357 30 197 232 249 200 190 251 347 10 322 304 288 291 309 336 338 321 305 299 275 272 273 270 267 256 249 248 243 242 245 248 249 247 247 249 250 251 253 253 256 259 260 260 260 259 257 256 256 256 258 262 268 271 273 277 283 294 313 338 354 356
241 244 291 313 287 265 274 266 247 267 242 230 224 217 222 228 242 276 275 235 228 187 78 49 11 355 250 248 262 241 238 104 212 242 255 256 266 268 261 268 293 311 311 297 292 301 295 294 289 278 270 259 251 249 250 250 247 247 247 246 246 245 244 247 247 244 247 252 255 258 260 263 268 265 265 267 268 268 271 276 286 302 328 358 14 19 16 10
245 245 256 283 277 268 283 321 289 227 236 235 217 251 251 254 16 25 325 249 184 107 60 39 356 332 307 282 295 312 333 309 284 279 276 262 254 254 253 252 251 254 272 286 284 274 265 271 280 276 274 276 268 263 265 263 251 244 239 237 239 240 242 244 244 245 247 249 256 263 267 298 326 335 333 326 321 315 314 341 11 14 17 19 17 13 9 4
Height
1562 1562 1561 1561 1560 1560 1559 1559 1559 1558 1558 1557 1556 1556 1555 1555 1554 1554 1553 1553 1552 1552 1551 1550 1550 1549 1548 1548 1547 1546 1546 1545 1545 1544 1543 1543 1544 1543 1544 1544 1544 1544 1544 1545 1544 1544 1544 1544 1544 1545 1545 1545 1545 1544 1545 1545 1545 1546 1548 1551 1551 1550 1547 1539 1536 1534 1532 1530 1528 1527 1526 1527 1525 1523 1522 1522 1520 1519 1519 1518 1517 1517 1516 1515 1515 1515 1515 1516
1562 1561 1561 1560 1560 1559 1559 1558 1558 1558 1557 1557 1556 1556 1555 1555 1554 1553 1553 1552 1552 1551 1551 1550 1549 1548 1548 1547 1546 1545 1544 1544 1543 1542 1541 1541 1542 1541 1542 1543 1543 1543 1543 1544 1544 1544 1544 1544 1544 1544 1544 1544 1544 1544 1544 1544 1544 1545 1548 1550 1547 1544 1538 1532 1531 1530 1529 1529 1527 1526 1525 1525 1524 1522 1522 1521 1518 1518 1517 1515 1515 1515 1514 1513 1513 1513 1513 1514
1561 1560 1560 1559 1559 1558 1558 1558 1557 1557 1557 1556 1556 1555 1555 1554 1554 1553 1553 1552 1551 1551 1550 1549 1549 1548 1547 1546 1545 1545 1543 1542 1541 1540 1540 1540 1540 1540 1541 1541 1542 1542 1542 1542 1543 1543 1543 1543 1543 1543 1543 1543 1543 1543 1543 1543 1543 1543 1546 1548 1541 1536 1533 1530 1529 1528 1527 1527 1526 1525 1524 1524 1522 1521 1522 1519 1517 1516 1513 1511 1512 1513 1511 1511 1511 1511 1511 1512
1560 1559 1559 1558 1558 1558 1557 1557 1556 1556 1556 1555 1555 1555 1554 1554 1553 1553 1552 1551 1551 1550 1550 1549 1548 1547 1547 1546 1545 1544 1543 1541 1539 1539 1539 1539 1539 1539 1539 1540 1540 1541 1541 1542 1542 1543 1543 1543 1543 1542 1542 1542 1542 1542 1542 1541 1542 1541 1542 1541 1535 1533 1533 1528 1527 1526 1526 1526 1525 1524 1524 1523 1520 1521 1520 1518 1517 1511 1505 1506 1508 1509 1508 1508 1509 1509 1509 1509
1559 1558 1558 1557 1557 1556 1556 1556 1555 1555 1555 1554 1554 1554 1553 1553 1552 1552 1551 1551 1550 1549 1549 1548 1547 1547 1546 1545 1544 1543 1543 1542 1538 1538 1539 1538 1538 1538 1538 1538 1539 1539 1540 1540 1541 1542 1542 1541 1541 1542 1542 1541 1541 1541 1540 1538 1539 1539 1536 1534 1531 1532 1531 1525 1526 1526 1525 1525 1525 1524 1523 1521 1519 1519 1517 1517 1516 1504 1498 1504 1505 1505 1506 1507 1507 1507 1507 1506
1558 1557 1557 1556 1556 1555 1555 1555 1554 1554 1554 1553 1553 1552 1552 1552 1551 1551 1550 1550 1549 1548 1547 1547 1546 1546 1545 1544 1544 1543 1544 1543 1538 1538 1538 1537 1537 1537 1537 1537 1537 1538 1539 1539 1540 1540 1540 1540 1540 1541 1540 1539 1540 1539 1537 1537 1538 1537 1533 1531 1530 1531 1529 1524 1525 1525 1525 1525 1523 1523 1521 1520 1519 1517 1514 1514 1510 1497 1496 1503 1503 1503 1504 1505 1504 1504 1503 1503
1557 1556 1556 1556 1555 1555 1554 1554 1553 1553 1553 1552 1552 1551 1551 1551 1550 1549 1549 1548 1547 1547 1546 1545 1545 1544 1544 1543 1542 1541 1542 1540 1537 1537 1537 1536 1537 1536 1536 1536 1536 1537 1537 1538 1538 1539 1539 1539 1539 1539 1539 1538 1538 1536 1535 1535 1536 1536 1532 1529 1528 1528 1526 1523 1523 1524 1524 1523 1521 1522 1520 1518 1517 1515 1513 1509 1501 1494 1496 1500 1500 1501 1501 1501 1501 1500 1500 1499
1555 1555 1555 1555 1554 1554 1553 1553 1552 1552 1551 1551 1551 1550 1550 1549 1549 1548 1547 1547 1546 1545 1544 1544 1543 1543 1543 1541 1541 1540 1538 1538 1537 1537 1536 1536 1536 1535 1535 1535 1535 1535 1535 1536 1536 1538 1537 1537 1537 1537 1537 1537 1535 1534 1534 1534 1534 1533 1530 1527 1526 1526 1523 1522 1522 1522 1521 1521 1520 1521 1517 1515 1515 1514 1511 1503 1495 1491 1495 1497 1497 1498 1497 1498 1497 1496 1497 1496
1554 1554 1554 1553 1553 1553 1552 1552 1551 1551 1550 1550 1549 1549 1549 1548 1548 1547 1546 1545 1545 1544 1543 1543 1542 1542 1542 1540 1540 1538 1535 1535 1535 1535 1535 1535 1534 1534 1534 1533 1534 1534 1534 1534 1535 1536 1535 1535 1535 1535 1535 1534 1534 1533 1533 1534 1532 1529 1527 1526 1524 1524 1522 1520 1519 1518 1519 1519 1518 1519 1514 1511 1513 1514 1506 1495 1490 1489 1492 1493 1493 1494 1494 1493 1493 1492 1493 1492
1553 1552 1552 1552 1552 1551 1551 1550 1550 1549 1549 1548 1548 1548 1547 1547 1546 1545 1544 1544 1543 1542 1541 1541 1541 1541 1540 1539 1539 1536 1532 1533 1534 1534 1534 1533 1533 1533 1532 1532 1532 1532 1532 1532 1533 1533 1533 1534 1534 1534 1534 1533 1532 1531 1531 1532 1529 1526 1526 1525 1523 1523 1520 1517 1516 1515 1517 1516 1515 1516 1511 1507 1511 1514 1502 1487 1486 1490 1490 1489 1489 1491 1489 1488 1489 1488 1488 1488
1551 1551 1550 1550 1550 1550 1549 1549 1548 1548 1547 1546 1546 1546 1545 1545 1544 1543 1543 1542 1541 1540 1540 1540 1539 1539 1538 1538 1537 1533 1530 1532 1532 1532 1532 1532 1531 1531 1531 1531 1530 1530 1530 1530 1530 1531 1531 1532 1533 1533 1533 1532 1531 1530 1529 1528 1527 1526 1526 1524 1520 1521 1519 1513 1512 1513 1514 1513 1510 1512 1509 1506 1510 1510 1496 1484 1485 1489 1487 1486 1487 1487 1485 1485 1485 1485 1485 1484
1548 1548 1548 1548 1548 1547 1547 1547 1546 1546 1545 1545 1544 1544 1543 1543 1542 1541 1541 1540 1539 1538 1538 1538 1538 1537 1537 1535 1531 1529 1530 1531 1530 1530 1530 1530 1529 1529 1529 1529 1529 1529 1529 1528 1528 1529 1530 1530 1531 1531 1531 1531 1530 1529 1528 1526 1527 1526 1526 1526 1519 1519 1517 1506 1506 1510 1511 1510 1506 1510 1510 1504 1505 1499 1487 1483 1486 1487 1487 1484 1483 1483 1481 1481 1481 1481 1481 1479
1546 1546 1546 1546 1545 1545 1544 1544 1544 1543 1543 1542 1542 1542 1541 1540 1540 1539 1538 1538 1537 1536 1535 1535 1535 1535 1535 1531 1526 1527 1529 1528 1528 1528 1528 1528 1527 1526 1527 1526 1526 1527 1527 1527 1527 1528 1528 1529 1529 1530 1529 1529 1529 1528 1526 1525 1526 1525 1526 1527 1521 1523 1517 1499 1502 1508 1507 1508 1504 1509 1511 1499 1493 1488 1482 1484 1485 1486 1486 1482 1480 1478 1477 1476 1477 1477 1476 1475
1545 1544 1544 1544 1544 1543 1542 1542 1541 1541 1540 1540 1539 1539 1538 1538 1537 1536 1536 1535 1535 1534 1533 1533 1532 1533 1532 1528 1524 1525 1525 1525 1525 1525 1526 1526 1525 1524 1524 1524 1524 1525 1525 1525 1526 1526 1527 1528 1528 1529 1528 1528 1527 1526 1526 1525 1526 1525 1527 1527 1526 1530 1516 1497 1502 1507 1504 1505 1502 1507 1511 1498 1484 1481 1481 1483 1483 1485 1483 1479 1477 1475 1474 1473 1472 1473 1471 1471
1543 1543 1543 1542 1542 1542 1541 1540 1539 1538 1538 1537 1537 1536 1535 1535 1534 1533 1533 1532 1532 1531 1530 1530 1530 1530 1529 1525 1523 1522 1522 1522 1522 1523 1523 1523 1522 1521 1521 1522 1522 1522 1523 1523 1523 1524 1525 1527 1528 1528 1527 1527 1526 1526 1527 1527 1525 1526 1528 1527 1527 1529 1516 1500 1501 1503 1501 1502 1502 1505 1507 1498 1483 1475 1477 1481 1481 1481 1479 1475 1474 1473 1471 1470 1469 1468 1467 1465
1541 1541 1541 1541 1541 1540 1539 1539 1537 1536 1536 1535 1534 1533 1532 1532 1531 1530 1530 1529 1529 1528 1528 1527 1527 1528 1527 1523 1521 1520 1519 1519 1520 1521 1520 1520 1520 1519 1519 1520 1520 1520 1521 1521 1522 1523 1524 1526 1526 1527 1527 1526 1526 1527 1529 1531 1528 1525 1527 1525 1523 1525 1522 1511 1500 1497 1499 1499 1501 1501 1498 1492 1481 1472 1473 1478 1478 1477 1475 1472 1471 1469 1468 1467 1466 1464 1462 1460
1540 1540 1539 1539 1539 1538 1538 1537 1536 1535 1533 1533 1532 1531 1530 1529 1528 1527 1526 1526 1526 1525 1525 1525 1525 1526 1524 1520 1518 1517 1516 1517 1517 1518 1517 1517 1517 1517 1518 1518 1518 1518 1519 1520 1521 1521 1523 1525 1525 1526 1526 1525 1525 1527 1534 1538 1531 1523 1525 1525 1522 1522 1523 1517 1503 1496 1498 1498 1498 1497 1494 1487 1477 1471 1471 1474 1475 1474 1472 1470 1467 1466 1465 1464 1463 1460 1457 1456
1539 1538 1538 1538 1537 1537 1536 1535 1534 1533 1532 1531 1529 1528 1527 1526 1525 1524 1523 1523 1523 1523 1524 1523 1524 1526 1521 1516 1516 1514 1514 1515 1514 1515 1515 1515 1515 1515 1516 1516 1516 1517 1518 1519 1519 1520 1523 1523 1524 1525 1526 1524 1524 1528 1533 1530 1521 1517 1520 1522 1522 1520 1519 1517 1507 1498 1497 1497 1496 1496 1494 1486 1478 1473 1471 1470 1472 1471 1468 1467 1464 1463 1462 1460 1459 1456 1453 1451
1538 1537 1537 1537 1536 1536 1535 1534 1533 1532 1530 1529 1528 1526 1524 1523 1522 1521 1521 1520 1520 1521 1521 1520 1520 1521 1517 1513 1513 1513 1512 1512 1511 1512 1512 1512 1512 1513 1514 1514 1515 1515 1517 1518 1518 1519 1520 1522 1525 1527 1525 1521 1519 1524 1523 1514 1511 1514 1516 1518 1519 1516 1513 1511 1504 1497 1497 1497 1494 1494 1489 1482 1479 1475 1469 1467 1468 1467 1465 1464 1462 1459 1458 1456 1454 1451 1449 1447
1537 1536 1536 1536 1535 1535 1534 1533 1532 1531 1529 1527 1526 1525 1523 1522 1520 1519 1518 1518 1517 1516 1515 1515 1514 1513 1511 1510 1511 1511 1509 1509 1508 1508 1509 1509 1510 1512 1513 1513 1514 1515 1515 1516 1518 1517 1517 1521 1523 1520 1516 1513 1514 1516 1513 1509 1512 1515 1516 1517 1515 1514 1510 1503 1499 1494 1497 1496 1488 1487 1482 1475 1475 1471 1467 1465 1464 1463 1461 1460 1457 1454 1453 1450 1448 1445 1443 1441
1536 1536 1535 1535 1535 1535 1534 1533 1532 1531 1529 1526 1525 1524 1523 1522 1521 1519 1518 1515 1513 1512 1510 1510 1509 1507 1506 1506 1506 1506 1506 1505 1505 1505 1506 1507 1508 1509 1510 1511 1513 1514 1513 1514 1516 1516 1516 1519 1518 1511 1507 1508 1509 1511 1511 1512 1513 1514 1516 1516 1514 1514 1506 1497 1496 1493 1494 1495 1484 1481 1479 1471 1470 1467 1464 1464 1462 1459 1456 1455 1451 1447 1447 1445 1443 1440 1436 1434
1536 1535 1535 1535 1534 1534 1533 1532 1531 1530 1529 1527 1525 1524 1523 1522 1521 1521 1519 1515 1509 1508 1507 1504 1503 1501 1500 1501 1501 1502 1503 1501 1501 1501 1503 1504 1505 1505 1505 1507 1510 1510 1512 1514 1515 1516 1518 1516 1511 1506 1505 1508 1509 1510 1512 1512 1513 1515 1517 1517 1515 1513 1504 1494 1493 1490 1491 1493 1483 1479 1477 1466 1463 1462 1460 1461 1458 1453 1450 1449 1445 1441 1442 1441 1438 1434 1430 1429
1535 1534 1534 1533 1533 1533 1533 1532 1531 1530 1529 1527 1525 1524 1523 1521 1520 1519 1519 1516 1507 1503 1501 1498 1497 1495 1494 1495 1495 1498 1498 1496 1496 1497 1500 1501 1501 1503 1503 1504 1507 1508 1511 1512 1511 1512 1513 1510 1505 1504 1506 1509 1509 1509 1511 1512 1513 1514 1515 1517 1513 1508 1505 1495 1489 1486 1488 1489 1482 1479 1474 1462 1460 1458 1456 1456 1450 1446 1445 1443 1440 1438 1437 1435 1431 1430 1428 1424
1533 1533 1533 1532 1532 1532 1531 1531 1530 1529 1528 1527 1525 1524 1522 1521 1520 1518 1517 1514 1506 1499 1495 1492 1492 1491 1489 1490 1491 1493 1494 1494 1495 1494 1496 1497 1499 1502 1501 1502 1506 1508 1508 1506 1506 1504 1500 1500 1500 1502 1505 1507 1508 1508 1510 1513 1511 1506 1509 1513 1506 1501 1501 1495 1489 1487 1487 1485 1482 1481 1471 1454 1452 1453 1448 1448 1446 1443 1443 1440 1436 1434 1430 1428 1426 1425 1423 1419
1530 1531 1530 1530 1531 1530 1530 1530 1529 1529 1527 1526 1525 1524 1522 1521 1519 1518 1517 1514 1506 1496 1491 1489 1488 1487 1487 1487 1489 1490 1492 1493 1491 1491 1493 1494 1496 1499 1499 1501 1503 1503 1503 1505 1505 1501 1496 1497 1498 1500 1503 1504 1506 1506 1509 1512 1505 1497 1501 1503 1495 1493 1495 1494 1493 1494 1492 1488 1482 1484 1476 1447 1437 1446 1445 1443 1444 1441 1439 1437 1432 1427 1423 1423 1421 1417 1415 1413
1528 1528 1528 1529 1529 1529 1529 1528 1528 1528 1526 1526 1525 1523 1523 1521 1520 1519 1518 1517 1506 1493 1489 1489 1487 1486 1485 1486 1487 1489 1492 1490 1486 1488 1490 1491 1492 1495 1496 1498 1498 1498 1500 1502 1503 1498 1493 1494 1494 1496 1499 1500 1504 1506 1504 1506 1502 1494 1493 1492 1488 1491 1494 1494 1496 1497 1495 1490 1483 1485 1486 1459 1435 1440 1445 1441 1441 1437 1434 1433 1427 1421 1418 1417 1415 1410 1408 1408
1526 1526 1526 1526 1527 1527 1528 1527 1528 1527 1526 1526 1524 1524 1523 1521 1522 1520 1518 1519 1505 1488 1486 1487 1486 1486 1485 1486 1487 1488 1491 1487 1485 1487 1488 1489 1491 1492 1494 1495 1495 1495 1495 1499 1500 1492 1488 1491 1491 1492 1495 1498 1504 1502 1496 1499 1501 1492 1486 1486 1486 1488 1491 1492 1496 1497 1493 1489 1485 1482 1488 1478 1446 1435 1439 1435 1435 1435 1430 1426 1420 1416 1414 1411 1409 1406 1405 1405
1524 1524 1523 1524 1524 1525 1525 1526 1527 1526 1526 1526 1524 1525 1522 1521 1523 1518 1522 1525 1501 1482 1485 1486 1485 1486 1485 1487 1487 1487 1489 1487 1486 1487 1487 1489 1490 1491 1492 1491 1493 1493 1492 1497 1496 1486 1484 1489 1490 1490 1496 1498 1496 1490 1487 1494 1495 1486 1483 1487 1487 1487 1489 1490 1491 1494 1495 1492 1487 1479 1485 1486 1451 1425 1431 1432 1432 1434 1426 1420 1416 1411 1409 1405 1404 1404 1402 1402
1522 1522 1521 1522 1521 1522 1523 1524 1525 1525 1525 1524 1524 1524 1521 1523 1522 1518 1530 1528 1494 1479 1487 1486 1485 1487 1486 1488 1488 1488 1489 1488 1489 1489 1488 1490 1490 1491 1492 1490 1492 1493 1492 1493 1489 1484 1485 1486 1487 1490 1493 1491 1485 1483 1485 1489 1487 1483 1485 1487 1487 1488 1488 1491 1489 1489 1496 1491 1482 1478 1482 1483 1451 1420 1428 1435 1432 1431 1421 1416 1413 1407 1406 1404 1403 1402 1400 1399
1520 1519 1519 1519 1518 1519 1520 1521 1523 1524 1524 1524 1524 1523 1521 1522 1521 1525 1535 1519 1489 1485 1489 1486 1488 1489 1488 1490 1490 1489 1490 1490 1490 1490 1490 1491 1491 1491 1492 1491 1492 1492 1492 1492 1488 1484 1485 1486 1488 1486 1484 1481 1481 1484 1485 1485 1484 1484 1487 1486 1487 1490 1488 1493 1491 1489 1496 1486 1474 1472 1472 1479 1459 1426 1427 1432 1427 1426 1419 1415 1412 1406 1404 1402 1401 1399 1397 1396
1518 1517 1517 1517 1516 1517 1517 1518 1521 1522 1523 1523 1523 1523 1522 1521 1523 1530 1525 1501 1488 1491 1489 1488 1491 1490 1490 1492 1490 1489 1490 1490 1490 1491 1491 1492 1492 1493 1493 1492 1493 1494 1494 1492 1487 1483 1483 1486 1484 1477 1476 1478 1480 1483 1484 1486 1485 1484 1487 1486 1487 1491 1490 1494 1495 1495 1498 1483 1466 1462 1463 1472 1459 1427 1422 1423 1418 1419 1417 1414 1411 1406 1403 1399 1397 1396 1394 1394
1515 1515 1515 1515 1515 1514 1514 1516 1517 1520 1521 1521 1523 1522 1522 1526 1527 1521 1508 1495 1492 1491 1487 1489 1491 1490 1492 1493 1490 1489 1490 1489 1488 1489 1490 1492 1493 1492 1492 1491 1491 1494 1493 1489 1486 1482 1478 1476 1475 1472 1473 1476 1478 1481 1485 1486 1485 1485 1488 1489 1494 1499 1498 1497 1496 1497 1495 1476 1460 1460 1464 1464 1442 1419 1419 1417 1410 1411 1409 1409 1408 1404 1402 1397 1394 1394 1392 1392
1513 1513 1513 1513 1512 1512 1512 1513 1515 1517 1518 1520 1523 1522 1524 1531 1521 1504 1499 1498 1493 1486 1486 1490 1489 1489 1492 1491 1489 1489 1489 1488 1487 1488 1489 1491 1493 1491 1491 1490 1489 1489 1488 1489 1488 1482 1473 1467 1469 1474 1473 1471 1473 1478 1483 1480 1480 1483 1483 1485 1495 1501 1501 1500 1497 1494 1486 1467 1457 1462 1466 1456 1432 1415 1412 1408 1405 1404 1403 1405 1403 1400 1400 1396 1393 1393 1391 1390
1510 1510 1510 1509 1510 1509 1509 1511 1513 1514 1516 1518 1521 1523 1527 1525 1508 1496 1497 1495 1487 1484 1486 1489 1488 1489 1490 1488 1487 1486 1487 1486 1485 1487 1488 1490 1493 1490 1487 1488 1488 1488 1488 1491 1489 1484 1479 1469 1465 1470 1468 1467 1469 1468 1469 1468 1472 1477 1474 1476 1483 1483 1485 1488 1484 1478 1469 1459 1460 1468 1461 1444 1427 1412 1403 1402 1403 1401 1400 1400 1399 1398 1396 1393 1392 1390 1388 1388
1508 1508 1507 1507 1507 1507 1507 1509 1510 1512 1514 1515 1519 1524 1523 1512 1499 1497 1497 1491 1488 1488 1487 1487 1487 1488 1487 1485 1485 1483 1483 1483 1485 1487 1487 1490 1492 1488 1484 1483 1484 1486 1489 1491 1486 1482 1483 1471 1460 1463 1462 1462 1464 1460 1461 1467 1471 1473 1472 1475 1475 1468 1468 1471 1466 1460 1460 1462 1462 1461 1448 1429 1417 1407 1402 1404 1403 1399 1398 1397 1397 1397 1392 1391 1390 1387 1387 1387
1505 1505 1505 1504 1503 1504 1505 1506 1507 1509 1511 1513 1519 1522 1514 1500 1494 1495 1493 1489 1491 1491 1489 1488 1485 1486 1486 1484 1483 1482 1480 1482 1484 1485 1486 1489 1488 1485 1482 1480 1479 1481 1483 1484 1479 1476 1479 1470 1459 1461 1461 1459 1460 1458 1461 1466 1469 1473 1476 1472 1465 1461 1462 1467 1465 1458 1463 1468 1455 1442 1436 1424 1415 1408 1402 1404 1400 1396 1396 1395 1396 1396 1392 1390 1388 1386 1386 1386
1503 1503 1503 1501 1501 1503 1503 1503 1505 1507 1508 1510 1514 1511 1502 1494 1491 1490 1488 1488 1491 1492 1493 1493 1487 1485 1487 1485 1483 1482 1481 1481 1482 1483 1484 1485 1483 1480 1478 1476 1475 1476 1474 1475 1474 1471 1472 1468 1458 1457 1459 1458 1459 1461 1460 1460 1462 1468 1470 1463 1459 1462 1463 1467 1472 1466 1466 1467 1449 1434 1429 1423 1423 1417 1403 1401 1399 1394 1394 1394 1395 1395 1391 1389 1386 1385 1385 1384
1500 1500 1499 1498 1500 1501 1501 1502 1502 1503 1506 1507 1505 1499 1492 1489 1486 1485 1487 1488 1489 1491 1493 1495 1489 1485 1487 1487 1484 1481 1482 1482 1481 1482 1483 1482 1479 1474 1473 1473 1472 1473 1471 1473 1475 1472 1472 1473 1463 1455 1458 1460 1460 1462 1461 1458 1458 1460 1459 1457 1459 1464 1463 1463 1469 1469 1465 1462 1448 1436 1428 1421 1423 1418 1405 1402 1400 1395 1394 1393 1394 1395 1393 1390 1387 1387 1387 1386
1498 1498 1496 1495 1497 1499 1499 1500 1500 1501 1503 1502 1499 1492 1487 1485 1483 1483 1485 1486 1487 1490 1490 1491 1488 1485 1485 1485 1483 1481 1483 1483 1482 1482 1483 1481 1475 1468 1467 1470 1471 1471 1470 1472 1475 1473 1472 1477 1471 1459 1458 1463 1462 1461 1460 1457 1458 1459 1459 1459 1459 1458 1457 1456 1457 1456 1455 1453 1446 1439 1432 1422 1414 1408 1403 1401 1398 1395 1394 1393 1394 1396 1395 1393 1391 1390 1390 1389
1497 1496 1493 1492 1494 1496 1497 1498 1497 1499 1498 1494 1491 1487 1483 1482 1483 1482 1483 1485 1486 1487 1487 1486 1486 1485 1483 1481 1481 1481 1481 1481 1481 1482 1481 1477 1472 1468 1465 1467 1468 1468 1468 1468 1470 1471 1470 1474 1473 1464 1460 1462 1461 1458 1456 1455 1457 1461 1462 1461 1459 1456 1453 1452 1451 1446 1445 1447 1444 1440 1436 1422 1408 1402 1399 1397 1396 1396 1395 1394 1395 1395 1393 1393 1393 1391 1391 1390
1495 1494 1490 1490 1493 1493 1495 1496 1495 1495 1493 1488 1485 1483 1482 1482 1481 1481 1482 1483 1483 1482 1483 1483 1483 1483 1481 1480 1480 1480 1480 1480 1479 1479 1477 1472 1472 1471 1465 1462 1463 1464 1465 1465 1466 1468 1471 1473 1476 1474 1468 1464 1458 1453 1454 1454 1454 1457 1459 1457 1455 1453 1452 1454 1451 1441 1437 1440 1437 1437 1437 1423 1406 1400 1396 1395 1395 1395 1394 1394 1394 1393 1391 1391 1390 1390 1390 1389
1492 1490 1488 1489 1490 1490 1491 1493 1492 1491 1489 1485 1481 1480 1481 1481 1479 1479 1480 1480 1481 1480 1480 1480 1479 1479 1479 1478 1478 1478 1478 1477 1475 1475 1473 1469 1468 1467 1462 1459 1460 1460 1461 1462 1460 1461 1465 1470 1475 1476 1470 1464 1457 1451 1451 1452 1451 1452 1453 1450 1448 1448 1448 1451 1449 1438 1434 1435 1432 1434 1436 1424 1408 1398 1394 1392 1392 1391 1392 1392 1391 1390 1389 1388 1388 1388 1388 1388
1487 1486 1486 1487 1488 1487 1489 1490 1489 1487 1484 1481 1479 1479 1480 1480 1479 1478 1478 1478 1479 1479 1478 1476 1476 1475 1475 1475 1475 1475 1475 1474 1470 1470 1469 1466 1463 1461 1458 1458 1458 1458 1458 1459 1457 1457 1459 1463 1467 1468 1464 1459 1454 1450 1447 1446 1448 1450 1448 1446 1445 1443 1440 1440 1439 1436 1434 1434 1434 1435 1431 1419 1407 1397 1391 1389 1388 1388 1388 1387 1387 1388 1387 1386 1386 1385 1385 1385
1483 1483 1484 1485 1486 1486 1485 1484 1483 1483 1481 1480 1480 1480 1479 1479 1477 1476 1475 1476 1477 1476 1475 1473 1472 1472 1471 1471 1471 1471 1472 1471 1466 1463 1463 1463 1459 1456 1455 1456 1456 1457 1457 1456 1455 1455 1455 1456 1458 1462 1462 1459 1456 1454 1448 1443 1443 1443 1441 1439 1438 1436 1434 1434 1433 1434 1432 1429 1429 1428 1418 1408 1402 1396 1391 1389 1385 1382 1381 1380 1383 1385 1384 1383 1383 1382 1382 1381
1482 1482 1481 1481 1483 1482 1479 1477 1478 1479 1479 1479 1479 1478 1479 1477 1474 1472 1472 1474 1473 1473 1472 1470 1469 1468 1468 1468 1468 1468 1468 1469 1466 1462 1460 1459 1456 1453 1452 1454 1454 1454 1454 1454 1452 1454 1453 1450 1452 1458 1459 1455 1451 1447 1441 1437 1437 1437 1435 1433 1432 1432 1433 1432 1432 1434 1429 1421 1417 1415 1407 1400 1397 1396 1394 1390 1384 1379 1374 1373 1378 1381 1380 1378 1378 1378 1378 1378
1481 1480 1479 1478 1479 1477 1475 1474 1474 1475 1476 1477 1476 1475 1476 1474 1470 1470 1471 1471 1470 1470 1470 1469 1468 1468 1467 1467 1468 1467 1466 1466 1466 1465 1462 1459 1456 1453 1452 1452 1452 1451 1451 1451 1452 1455 1456 1450 1448 1449 1447 1442 1437 1431 1429 1431 1434 1434 1432 1429 1428 1430 1431 1432 1432 1429 1422 1417 1411 1405 1401 1398 1396 1396 1392 1386 1381 1377 1371 1369 1372 1376 1375 1373 1372 1372 1373 1373
1479 1477 1475 1475 1476 1474 1471 1470 1471 1471 1472 1473 1473 1470 1470 1470 1469 1469 1468 1467 1466 1466 1467 1466 1465 1466 1465 1464 1465 1465 1464 1463 1463 1463 1461 1459 1456 1454 1452 1452 1452 1450 1449 1449 1450 1453 1454 1450 1445 1442 1438 1434 1431 1427 1426 1429 1430 1430 1428 1426 1425 1425 1427 1429 1428 1421 1420 1419 1410 1400 1399 1397 1394 1394 1390 1382 1378 1374 1370 1368 1369 1370 1370 1369 1367 1367 1368 1369
1476 1474 1472 1472 1472 1470 1468 1467 1467 1468 1468 1469 1468 1466 1465 1466 1467 1467 1466 1464 1463 1463 1464 1463 1462 1461 1461 1462 1463 1464 1462 1460 1459 1458 1458 1460 1461 1459 1456 1452 1451 1451 1450 1450 1449 1449 1447 1442 1438 1435 1432 1430 1430 1428 1426 1426 1425 1424 1424 1423 1422 1421 1422 1422 1418 1413 1415 1413 1403 1398 1398 1394 1390 1389 1385 1378 1374 1371 1368 1368 1366 1365 1365 1364 1363 1364 1365 1365
1474 1472 1470 1471 1470 1468 1466 1466 1466 1466 1466 1466 1464 1463 1463 1463 1463 1463 1463 1463 1462 1461 1461 1461 1460 1461 1463 1464 1465 1465 1463 1461 1461 1459 1461 1465 1466 1465 1462 1456 1451 1450 1452 1453 1452 1448 1444 1438 1433 1431 1429 1427 1427 1426 1424 1424 1422 1420 1419 1418 1417 1417 1415 1413 1409 1407 1406 1401 1394 1393 1392 1386 1383 1383 1378 1373 1371 1368 1367 1366 1364 1362 1361 1360 1361 1363 1365 1365
1473 1472 1471 1471 1469 1467 1466 1466 1467 1467 1467 1465 1463 1461 1461 1461 1460 1460 1460 1461 1461 1460 1459 1461 1463 1464 1465 1465 1466 1466 1463 1463 1465 1464 1465 1468 1467 1466 1465 1460 1453 1451 1453 1454 1452 1449 1446 1438 1431 1431 1429 1425 1423 1422 1420 1420 1418 1415 1414 1414 1414 1412 1409 1406 1405 1403 1402 1396 1390 1390 1388 1381 1377 1375 1370 1367 1367 1367 1366 1363 1361 1360 1361 1363 1365 1367 1369 1368
1472 1472 1472 1472 1469 1466 1466 1466 1466 1466 1466 1463 1461 1459 1459 1459 1459 1459 1459 1458 1458 1459 1460 1462 1464 1464 1464 1464 1464 1464 1463 1464 1466 1464 1464 1467 1466 1464 1464 1461 1458 1456 1454 1452 1449 1449 1448 1441 1435 1434 1428 1419 1418 1418 1417 1417 1417 1414 1413 1410 1407 1405 1401 1398 1396 1395 1394 1390 1385 1385 1383 1378 1374 1372 1368 1366 1367 1367 1366 1364 1365 1367 1369 1372 1373 1373 1373 1372
1471 1471 1472 1473 1471 1467 1466 1466 1465 1465 1462 1459 1459 1459 1458 1458 1459 1460 1460 1457 1456 1458 1460 1462 1463 1462 1462 1462 1461 1461 1462 1462 1461 1460 1461 1461 1460 1459 1459 1457 1457 1457 1454 1450 1448 1447 1446 1443 1439 1436 1426 1416 1414 1413 1413 1415 1412 1407 1404 1400 1396 1393 1391 1389 1388 1386 1384 1384 1384 1384 1384 1384 1385 1384 1382 1381 1379 1377 1376 1375 1376 1376 1377 1377 1378 1378 1376 1374